This demonstration page uses our WeatherBlox Daily Observations layout. Learn more.

Left ArrowRight Arrow

39.92423, -83.80882

Hourly Observations for January 5, 2020

Temp ( °F °C ) Dew Point ( °F °C ) Humidity (%) Winds ( mph kmh ) Pressure ( in mb ) Visibility ( mi km ) Precip ( " mm )
12:56 am 00:56 Cloudy 31 -0.6 26 -3.3 82 82 WNW 15 24 30.13 1020 10 16.0934 0 0
1:56 am 01:56 Cloudy 31 -0.6 27 -2.8 85 85 WNW 15 24 30.15 1021 10 16.0934 0 0
2:56 am 02:56 Cloudy 30 -1.1 26 -3.3 85 85 WNW 14 22 30.17 1022 10 16.0934 0 0
3:56 am 03:56 Cloudy 31 -0.6 27 -2.8 85 85 WNW 14 22 30.18 1022 10 16.0934 0 0
4:56 am 04:56 Cloudy 30 -1.1 27 -2.8 88 88 WNW 12 19 30.19 1022 10 16.0934 0 0
5:56 am 05:56 Cloudy 30 -1.1 26 -3.3 85 85 WNW 10 17 30.2 1023 10 16.0934 0 0
6:56 am 06:56 Cloudy 30 -1.1 26 -3.3 85 85 WNW 10 17 30.22 1024 10 16.0934 0 0
7:56 am 07:56 Cloudy 30 -1.1 27 -2.8 88 88 W 5 7 30.22 1023 10 16.0934 0 0
8:56 am 08:56 Cloudy 30 -1.1 26 -3.3 85 85 WSW 12 19 30.24 1024 10 16.0934 0 0
9:56 am 09:56 Cloudy 30 -1.1 26 -3.3 85 85 SW 14 22 30.24 1024 10 16.0934 0 0
10:25 am 10:25 Partly Cloudy 30 -1 27 -3 86 86 SW 13 20 30.26 1025 10 16.0934 0 0
10:56 am 10:56 Sunny 32 0 26 -3.3 79 79 SSW 10 17 30.21 1023 10 16.0934 0 0
11:56 am 11:56 Mostly Sunny 34 1.1 28 -2.2 79 79 SW 10 17 30.18 1022 10 16.0934 0 0
12:56 pm 12:56 Sunny 37 2.8 30 -1.1 76 76 SSW 13 20 30.1 1019 10 16.0934 0 0
1:56 pm 13:56 Sunny 39 3.9 31 -0.6 73 73 SSW 18 30 30.05 1018 10 16.0934 0 0
2:56 pm 14:56 Sunny 40 4.4 30 -1.1 68 68 SSW 13 20 30.03 1017 10 16.0934 0 0
3:56 pm 15:56 Sunny 41 5 31 -0.6 67 67 SW 12 19 30.01 1016 10 16.0934 0 0
4:56 pm 16:56 Sunny 41 5 29 -1.7 62 62 S 16 26 29.91 1013 7 11.26538 0 0
5:56 pm 17:56 Clear 39 3.9 30 -1.1 70 70 SW 9 15 29.98 1015 10 16.0934 0 0
6:56 pm 18:56 Cloudy 39 3.9 30 -1.1 70 70 SW 12 19 29.98 1015 10 16.0934 0 0
7:56 pm 19:56 Cloudy 41 5 32 0 70 70 WSW 15 24 29.99 1016 10 16.0934 0 0
8:56 pm 20:56 Cloudy 42 5.6 32 0 68 68 W 17 28 29.99 1016 10 16.0934 0 0
9:56 pm 21:56 Cloudy 41 5 33 0.6 73 73 WSW 14 22 29.98 1015 10 16.0934 0 0
10:56 pm 22:56 Cloudy 42 5.6 34 1.1 73 73 WSW 17 28 29.98 1015 10 16.0934 0 0
11:56 pm 23:56 Cloudy 41 5 34 1.1 76 76 W 21 33 29.99 1016 10 16.0934 0 0

Powered by AerisWeather